User: anonymous   Login
Location: Unspecified
(0.0000°N, 0.0000°E)
Time: 09:21:01
(UTC+00:00)
Language:

URSA MAIOR - Orbit

View from above orbital plane
View from above orbital plane
View from above satellite
View from above satellite

Ground track
Ground track

The orbit data is extracted from the following two-line orbital elements,

1 42776U 17036M   18267.62895221 +.00000980 +00000-0 +47186-4 0  9999
2 42776 097.3909 325.2147 0015676 078.5243 281.7752 15.20997717069615
Epoch (UTC): 24 September 2018 15:05:41
Eccentricity: 0.0015676
inclination: 97.3909°
perigee height: 492 km
apogee height: 513 km
right ascension of ascending node: 325.2147°
argument of perigee: 78.5243°
revolutions per day: 15.20997717
mean anomaly at epoch: 281.7752°
orbit number at epoch: 6961

The dashed part of the orbit path shows where the satellite is in the earth's shadow,  

DLR